Location: ?ejeti?ky
(50.4060°N, 14.9016°E)
Time: 21:08:15
(UTC+00:00)

SL-16 R/B - Pass Details

Date: 07 June 2020
Orbit: 986 x 1006 km, 99.5° (Epoch: 13 July)

Event Time Altitude Azimuth Distance (km) Brightness Sun altitude
Exits shadow 00:10:23 10° 152° (SSE) 2,781 4.5 -15.1°
Reaches altitude 10° 00:10:29 10° 152° (SSE) 2,740 4.4 -15.1°
Maximum altitude 00:16:36 72° 69° (ENE) 1,041 2.7 -14.8°
Drops below altitude 10° 00:22:47 10° 347° (NNW) 2,767 5.8 -14.5°
Sets 00:25:17 0° 346° (NNW) 3,723 6.5 -14.4°
